Location: Kershaw
(34.5481°N, 80.5823°W)
Time: 19:27:27
(UTC+00:00)

Transit 4A - Pass Details

Date: 10 October 2022
Orbit: 871 x 972 km, 66.8° (Epoch: 01 December)

Event Time Altitude Azimuth Distance (km) Brightness Sun altitude
Rises 11:48:27 0° 323° (NW) 3,469 10.4 4.1°
Reaches altitude 10° 11:51:08 10° 314° (NW) 2,523 9.7 4.7°
Maximum altitude 11:56:18 34° 251° (WSW) 1,402 8.5 5.7°
Drops below altitude 10° 12:01:27 10° 189° (S) 2,518 10.3 6.8°
Sets 12:04:09 0° 180° (S) 3,462 11.1 7.3°
